This demonstration page uses our WeatherBlox Daily Observations layout. Learn more.

Hourly Observations for November 10, 2020

Temp ( °F °C ) Dew Point ( °F °C ) Humidity (%) Winds ( mph kmh ) Pressure ( in mb ) Visibility ( mi km ) Precip ( " mm )
12:15 am 00:15 Clear 55 13 54 12 94 94 S 5 7 30.27 1025 10 16.0934 0 0
12:35 am 00:35 Clear 55 13 54 12 94 94 Calm 30.26 1025 10 16.0934 0 0
12:55 am 00:55 Clear 54 12 54 12 100 100 SE 3 6 30.26 1025 10 16.0934 0 0
1:15 am 01:15 Clear 54 12 54 12 100 100 SSE 3 6 30.25 1024 10 16.0934 0 0
3:55 am 03:55 Clear 50 10 50 10 100 100 Calm 30.25 1024 10 16.0934 0 0
4:15 am 04:15 Clear 46 8 46 8 100 100 Calm 30.25 1024 10 16.0934 0 0
4:35 am 04:35 Clear 46 8 46 8 100 100 Calm 30.24 1024 10 16.0934 0 0
4:55 am 04:55 Clear 45 7 45 7 100 100 Calm 30.25 1024 7 11.26538 0 0
5:15 am 05:15 Clear 45 7 45 7 100 100 Calm 30.25 1024 10 16.0934 0 0
5:35 am 05:35 Clear 46 8 46 8 100 100 Calm 30.25 1024 10 16.0934 0 0
5:55 am 05:55 Clear 45 7 45 7 100 100 Calm 30.24 1024 10 16.0934 0 0
6:15 am 06:15 Clear 45 7 45 7 100 100 Calm 30.25 1024 10 16.0934 0 0
6:35 am 06:35 Clear 45 7 45 7 100 100 Calm 30.25 1024 7 11.26538 0 0
6:55 am 06:55 Sunny 45 7 45 7 100 100 Calm 30.25 1024 7 11.26538 0 0
7:15 am 07:15 Sunny 45 7 45 7 100 100 Calm 30.26 1025 10 16.0934 0 0
7:35 am 07:35 Sunny 46 8 46 8 100 100 Calm 30.26 1025 10 16.0934 0 0
7:55 am 07:55 Sunny 48 9 48 9 100 100 Calm 30.26 1025 10 16.0934 0 0
8:15 am 08:15 Sunny 50 10 50 10 100 100 Calm 30.26 1025 10 16.0934 0 0
8:35 am 08:35 Sunny 52 11 52 11 100 100 Calm 30.25 1025 10 16.0934 0 0
8:55 am 08:55 Sunny 54 12 52 11 94 94 S 3 6 30.25 1024 10 16.0934 0 0
9:15 am 09:15 Sunny 55 13 54 12 94 94 S 3 6 30.24 1024 10 16.0934 0 0
9:35 am 09:35 Sunny 59 15 55 13 88 88 S 3 6 30.24 1024 10 16.0934 0 0
9:55 am 09:55 Sunny 61 16 55 13 83 83 S 3 6 30.23 1024 10 16.0934 0 0
10:15 am 10:15 Sunny 64 18 57 14 78 78 S 3 6 30.22 1024 10 16.0934 0 0
10:35 am 10:35 Sunny 66 19 59 15 78 78 S 9 15 30.22 1023 10 16.0934 0 0
10:55 am 10:55 Sunny 68 20 59 15 73 73 SSW 12 19 30.21 1023 10 16.0934 0 0
11:15 am 11:15 Partly Cloudy 70 21 59 15 69 69 S 10 17 30.2 1023 10 16.0934 0 0
11:35 am 11:35 Sunny 70 21 59 15 69 69 SSW 15 24 30.19 1022 10 16.0934 0 0
11:55 am 11:55 Partly Cloudy 72 22 59 15 65 65 S 9 15 30.18 1022 10 16.0934 0 0
12:15 pm 12:15 Partly Cloudy 72 22 59 15 65 65 S 17 28 30.16 1021 10 16.0934 0 0
12:35 pm 12:35 Partly Cloudy 72 22 59 15 65 65 SSW 9 15 30.15 1021 10 16.0934 0 0
12:55 pm 12:55 Mostly Cloudy 73 23 59 15 61 61 SSW 13 20 30.14 1021 10 16.0934 0 0
1:15 pm 13:15 Mostly Cloudy N/A N/A N/A SSW 14 22 N/A 10 16.0934 0 0
1:35 pm 13:35 Cloudy 73 23 57 14 57 57 S 17 28 30.13 1020 10 16.0934 0 0
1:55 pm 13:55 Cloudy 73 23 57 14 57 57 S 13 20 30.12 1020 10 16.0934 0 0
2:15 pm 14:15 Cloudy N/A N/A N/A S 15 24 N/A 10 16.0934 0 0
2:35 pm 14:35 Mostly Cloudy 73 23 57 14 57 57 SSW 10 17 30.11 1020 10 16.0934 0 0
2:55 pm 14:55 Mostly Cloudy 73 23 57 14 57 57 S 13 20 30.11 1020 10 16.0934 0 0
3:15 pm 15:15 Partly Cloudy 73 23 57 14 57 57 S 14 22 30.11 1020 10 16.0934 0 0
3:35 pm 15:35 Partly Cloudy N/A N/A N/A S 12 19 N/A 10 16.0934 0 0
3:55 pm 15:55 Partly Cloudy 72 22 59 15 65 65 S 12 19 30.11 1020 10 16.0934 0 0
4:55 pm 16:55 Sunny 70 21 59 15 69 69 S 7 11 30.1 1019 10 16.0934 0 0
5:15 pm 17:15 Clear 70 21 59 15 69 69 S 6 9 30.1 1019 10 16.0934 0 0
5:35 pm 17:35 Clear 68 20 59 15 73 73 S 6 9 30.11 1020 10 16.0934 0 0
5:55 pm 17:55 Clear 68 20 59 15 73 73 S 5 7 30.11 1020 10 16.0934 0 0
6:15 pm 18:15 Clear 68 20 59 15 73 73 SSE 3 6 30.11 1020 10 16.0934 0 0
6:35 pm 18:35 Clear 68 20 59 15 73 73 S 5 7 30.11 1020 10 16.0934 0 0
6:55 pm 18:55 Clear 66 19 59 15 78 78 SSE 6 9 30.11 1020 10 16.0934 0 0
7:15 pm 19:15 Clear 68 20 59 15 73 73 S 7 11 30.11 1020 10 16.0934 0 0
7:35 pm 19:35 Clear 66 19 59 15 78 78 S 7 11 30.11 1020 10 16.0934 0 0
7:55 pm 19:55 Clear 64 18 59 15 83 83 S 5 7 30.11 1020 10 16.0934 0 0
8:15 pm 20:15 Clear 63 17 59 15 88 88 S 5 7 30.13 1020 10 16.0934 0 0
8:35 pm 20:35 Clear 63 17 59 15 88 88 S 7 11 30.13 1020 10 16.0934 0 0
8:55 pm 20:55 Clear 63 17 59 15 88 88 S 8 13 30.13 1020 10 16.0934 0 0
9:15 pm 21:15 Clear 63 17 59 15 88 88 S 7 11 30.13 1020 10 16.0934 0 0
9:35 pm 21:35 Clear 63 17 59 15 88 88 S 7 11 30.13 1020 10 16.0934 0 0
9:55 pm 21:55 Clear 61 16 59 15 94 94 S 5 7 30.13 1020 10 16.0934 0 0
10:15 pm 22:15 Clear 61 16 59 15 94 94 S 3 6 30.13 1020 10 16.0934 0 0
10:35 pm 22:35 Clear 59 15 57 14 94 94 Calm 30.12 1020 10 16.0934 0 0
10:55 pm 22:55 Clear 59 15 57 14 94 94 S 5 7 30.12 1020 10 16.0934 0 0
11:15 pm 23:15 Clear 57 14 55 13 94 94 S 3 6 30.11 1020 10 16.0934 0 0
11:35 pm 23:35 Clear 57 14 57 14 100 100 S 6 9 30.11 1020 10 16.0934 0 0
11:55 pm 23:55 Clear 59 15 57 14 94 94 S 6 9 30.11 1020 10 16.0934 0 0

Powered by AerisWeather